User: anonymous   Login
Location: Unspecified
(0.0000°N, 0.0000°E)
Time: 03:52:47
(UTC+02:00)
Language:

Hamsat - Orbit

View from above orbital plane
View from above orbital plane
View from above satellite
View from above satellite

Ground track
Ground track

The orbit data is extracted from the following two-line orbital elements,

1 28650U 05017B   17289.47547725  .00000447  00000-0  53225-4 0  9998
2 28650  97.6658 259.8003 0025031  89.1161 271.2925 14.88771579674213
Epoch (UTC): 16 October 2017 11:24:41
Eccentricity: 0.0025031
inclination: 97.6658°
perigee height: 584 km
apogee height: 619 km
right ascension of ascending node: 259.8003°
argument of perigee: 89.1161°
revolutions per day: 14.88771579
mean anomaly at epoch: 271.2925°
orbit number at epoch: 67421

The dashed part of the orbit path shows where the satellite is in the earth's shadow,  

DLR